Regional Weather Roundup
Issued by NWS

Home | Current Version | Previous Version | Graphics & Text | Print | Product List | Glossary On
Versions: 1 2 3 4 5 6 7 8 9 10 11 12 13 14 15 16 17 18 19 20 21 22 23 24 25 26 27 28 29 30 31 32 33 34 35 36 37 38 39 40 41 42 43 44 45 46 47 48 49 50
558
ASUS43 KOAX 240002
RWRNE

WEATHER ROUNDUP FOR NEBRASKA
NATIONAL WEATHER SERVICE OMAHA NE
700 PM CDT SUN JUL 23 2017

NOTES: SATELLITE DATA IS BEING USED TO AUGMENT CLOUD COVER ABOVE
       12000 FEET.
       "FAIR" INDICATES FEW OR NO CLOUDS BELOW 12,000 FEET WITH NO
       SIGNIFICANT WEATHER AND/OR OBSTRUCTIONS TO VISIBILITY.


NEZ001>004-019>022-054>056-240100-
NEBRASKA PANHANDLE

CITY           SKY/WX    TMP DP  RH WIND       PRES   REMARKS
SCOTTSBLUFF    SUNNY     93  53  25 E10       30.00F HX  90
6HR MIN TEMP:  87; 6HR MAX TEMP:  97;

ALLIANCE       MOSUNNY   95  40  14 SE10      30.01F HX  91
6HR MIN TEMP:  86; 6HR MAX TEMP:  96;

CHADRON        SUNNY     95  50  21 SE9       29.95F HX  92
6HR MIN TEMP:  88; 6HR MAX TEMP:  97;

GORDON         FAIR      90  54  28 E10       30.00F
6HR MIN TEMP:  83; 6HR MAX TEMP:  91;

KIMBALL        SUNNY     89  46  21 SE14      30.09F
SIDNEY         SUNNY     93  41  16 S9G20     30.07F
6HR MIN TEMP:  90; 6HR MAX TEMP:  97;

$$

NEZ057>060-069>072-079>082-240100-
SOUTHWEST NEBRASKA

CITY           SKY/WX    TMP DP  RH WIND       PRES   REMARKS
NORTH PLATTE   SUNNY     90  62  39 SE10      29.98F HX  90
6HR MIN TEMP:  90; 6HR MAX TEMP:  97;

IMPERIAL       SUNNY     95  44  17 S8        30.00F HX  91
6HR MIN TEMP:  90; 6HR MAX TEMP:  97;

LEXINGTON      SUNNY     85  65  50 E10       29.99F
MCCOOK         SUNNY     93  53  25 SE8       29.98F HX  90
6HR MIN TEMP:  90; 6HR MAX TEMP:  97;

OGALLALA       SUNNY     94  45  18 SW6       30.00F HX  90
$$

NEZ005>010-023>029-035>040-094-240100-
NORTH CENTRAL NEBRASKA

CITY           SKY/WX    TMP DP  RH WIND       PRES   REMARKS
VALENTINE      SUNNY     94  44  17 E12       29.99F HX  90
6HR MIN TEMP:  89; 6HR MAX TEMP:  95;

AINSWORTH      SUNNY     87  58  37 E9        30.01F
BROKEN BOW     SUNNY     87  57  35 E9        30.00S
6HR MIN TEMP:  87; 6HR MAX TEMP:  92;

O`NEILL        SUNNY     83  61  47 E7        30.01S
ORD            SUNNY     87  56  34 NE7       29.98F
6HR MIN TEMP:  87; 6HR MAX TEMP:  91;

THEDFORD       SUNNY     91  52  26 E12       30.01F
$$

NEZ041-046>049-061>064-073>077-083>087-240100-
SOUTH CENTRAL NEBRASKA

CITY           SKY/WX    TMP DP  RH WIND       PRES   REMARKS
GRAND ISLAND   SUNNY     86  63  45 E9        29.98F
6HR MIN TEMP:  86; 6HR MAX TEMP:  90;

AURORA         SUNNY     83  67  59 E5        29.98S
HASTINGS       SUNNY     84  67  56 E7        29.99S
6HR MIN TEMP:  84; 6HR MAX TEMP:  88;

HEBRON         SUNNY     89  68  50 N9        29.93F HX  92
HOLDREGE       SUNNY     83  67  58 E7        29.99F
KEARNEY        SUNNY     84  67  56 E7        30.00S
YORK           SUNNY     82  66  57 NE7       29.97S
$$

NEZ011>018-030>034-042>045-240100-
NORTHEAST NEBRASKA

CITY           SKY/WX    TMP DP  RH WIND       PRES   REMARKS
NORFOLK        SUNNY     84  55  36 N10       29.98S
6HR MIN TEMP:  84; 6HR MAX TEMP:  89;

ALBION         SUNNY     85  61  44 NE7       29.99F
BLAIR          SUNNY     84  60  45 N12       29.95F
COLUMBUS       SUNNY     85  64  49 NE6       29.97F
FREMONT        SUNNY     84  60  44 N5        29.96S
TEKAMAH        SUNNY     84  58  40 N8        29.94F
6HR MIN TEMP:  84; 6HR MAX TEMP:  87;

WAYNE          SUNNY     83  54  37 N8        29.98S
$$

NEZ050>053-065>068-078-088>093-240100-
SOUTHEAST NEBRASKA

CITY           SKY/WX    TMP DP  RH WIND       PRES   REMARKS
LINCOLN        SUNNY     84  64  50 NE12      29.94F
6HR MIN TEMP:  84; 6HR MAX TEMP:  91;

OMAHA EPPLEY   MOSUNNY   86  58  38 N10       29.93S
6HR MIN TEMP:  86; 6HR MAX TEMP:  92;

BEATRICE       SUNNY     87  66  49 NE10      29.93S
FALLS CITY     SUNNY     87  72  60 N8        29.89F HX  93
6HR MIN TEMP:  86; 6HR MAX TEMP:  91;

NEBRASKA CITY  SUNNY     83  68  60 NE10      29.93S
PLATTSMOUTH    SUNNY     83  63  51 N5        29.93F
$$

NEZ044-045-051>053-067-240100-
OMAHA AREA

CITY           SKY/WX    TMP DP  RH WIND       PRES   REMARKS
OMAHA EPPLEY   MOSUNNY   86  58  38 N10       29.93S
6HR MIN TEMP:  86; 6HR MAX TEMP:  92;

BLAIR          SUNNY     84  60  45 N12       29.95F
FREMONT        SUNNY     84  60  44 N5        29.96S
MILLARD        SUNNY     88  60  39 N7        29.93F
OFFUTT AFB     SUNNY     85  58  39 N9G17     29.92F
PLATTSMOUTH    SUNNY     83  63  51 N5        29.93F
WAHOO          FAIR      83  63  51 N7        29.95S
$$




USA.gov is the U.S. government's official web portal to all federal, state and local government web resources and services.